Location: Unspecified
(0.0000°N, 0.0000°E)
Time: 19:11:40
(UTC+00:00)

CUTE 1.7 + AOD 2 - Visible Passes

Search period start: 16 January 2018 00:00
Search period end: 26 January 2018 00:00
Orbit: 595 x 613 km, 97.6° (Epoch: 15 January)

Date Brightness Start Highest point End Pass type
(mag) Time Alt. Az. Time Alt. Az. Time Alt. Az.
16 Jan ? 19:39:21 10° WSW 19:40:50 12° WSW 19:42:20 10° W visible
19 Jan ? 18:37:55 10° S 18:42:13 83° WSW 18:46:29 10° NNW visible
20 Jan ? 18:50:20 10° S 18:54:31 53° WSW 18:58:41 10° NNW visible
21 Jan ? 19:02:55 10° SSW 19:06:49 34° WSW 19:10:42 10° NW visible
22 Jan ? 05:36:20 10° E 05:37:20 11° ESE 05:38:20 10° ESE visible
22 Jan ? 19:15:43 10° SSW 19:19:06 23° WSW 19:22:30 10° NW visible
23 Jan ? 05:46:58 10° ENE 05:49:38 16° ESE 05:52:17 10° SE visible
23 Jan ? 19:28:51 10° SW 19:31:24 15° WSW 19:33:56 10° WNW visible
